• In Kazakhstan
  • List of Countries
  • For 7 days
  • Water Temperature
  • Weather Map
  • News
  • Weather Widgets
  • user-avatar
    Login

    Hourly Weather Keflavík

    Today, 17 September, Tuesday

    Time Temperature Precipitation Wind Pressure Humidity
    00:00 +3°C° 0 mm 3 mps 765 mmHg 83%
    01:00 +4°C° 0 mm 2 mps 765 mmHg 83%
    02:00 +4°C° 0 mm 2 mps 765 mmHg 82%
    03:00 +5°C° 0 mm 2 mps 765 mmHg 80%
    04:00 +5°C° 0 mm 2 mps 765 mmHg 79%
    05:00 +6°C° 0 mm 1 mps 765 mmHg 76%
    06:00 +7°C° 0 mm 1 mps 766 mmHg 74%
    07:00 +7°C° 0 mm 1 mps 766 mmHg 71%
    08:00 +8°C° 0 mm 1 mps 766 mmHg 70%
    09:00 +8°C° 0 mm 1 mps 766 mmHg 69%
    10:00 +9°C° 0 mm 1 mps 766 mmHg 67%
    11:00 +8°C° 0 mm 2 mps 766 mmHg 67%
    12:00 +8°C° 0 mm 2 mps 766 mmHg 66%
    13:00 +9°C° 0 mm 3 mps 766 mmHg 66%
    14:00 +8°C° 0 mm 3 mps 766 mmHg 67%
    15:00 +8°C° 0 mm 3 mps 766 mmHg 68%
    16:00 +8°C° 0 mm 3 mps 766 mmHg 69%
    17:00 +7°C° 0 mm 3 mps 766 mmHg 71%
    18:00 +7°C° 0 mm 3 mps 766 mmHg 74%
    19:00 +5°C° 0 mm 4 mps 766 mmHg 76%
    20:00 +5°C° 0 mm 5 mps 766 mmHg 78%
    21:00 +4°C° 0 mm 6 mps 766 mmHg 80%
    22:00 +5°C° 0 mm 7 mps 766 mmHg 82%
    23:00 +4°C° 0.3 mm 7 mps 765 mmHg 83%

    Tomorrow, 18 September, Wednesday

    Time Temperature Precipitation Wind Pressure Humidity
    00:00 +4°C° 0.3 mm 8 mps 764 mmHg 84%
    01:00 +3°C° 0.3 mm 9 mps 764 mmHg 86%
    02:00 +3°C° 1.5 mm 9 mps 763 mmHg 86%
    03:00 +2°C° 1.5 mm 10 mps 762 mmHg 87%
    04:00 +2°C° 1.5 mm 10 mps 761 mmHg 88%
    05:00 +2°C° 2 mm 10 mps 761 mmHg 89%
    06:00 +2°C° 2 mm 10 mps 760 mmHg 89%
    07:00 +3°C° 2 mm 10 mps 760 mmHg 90%
    08:00 +3°C° 1.3 mm 11 mps 759 mmHg 90%
    09:00 +4°C° 1.3 mm 12 mps 758 mmHg 90%
    10:00 +5°C° 1.3 mm 13 mps 758 mmHg 90%
    11:00 +5°C° 1.7 mm 13 mps 758 mmHg 90%
    12:00 +5°C° 1.7 mm 13 mps 757 mmHg 91%
    13:00 +5°C° 1.7 mm 13 mps 757 mmHg 92%
    14:00 +7°C° 2.1 mm 13 mps 756 mmHg 92%
    15:00 +7°C° 2.1 mm 12 mps 756 mmHg 93%
    16:00 +7°C° 2.1 mm 11 mps 756 mmHg 93%
    17:00 +8°C° 3.7 mm 11 mps 755 mmHg 94%
    18:00 +8°C° 3.7 mm 10 mps 755 mmHg 94%
    19:00 +8°C° 3.7 mm 10 mps 755 mmHg 95%
    20:00 +8°C° 2.7 mm 10 mps 754 mmHg 95%
    21:00 +9°C° 2.7 mm 11 mps 754 mmHg 96%
    22:00 +9°C° 2.7 mm 11 mps 753 mmHg 96%
    23:00 +9°C° 4 mm 11 mps 753 mmHg 96%

    Day after tomorrow, 19 September, Thursday

    Time Temperature Precipitation Wind Pressure Humidity
    00:00 +9°C° 4 mm 12 mps 752 mmHg 96%
    01:00 +9°C° 4 mm 12 mps 751 mmHg 96%
    02:00 +9°C° 1.1 mm 12 mps 751 mmHg 96%
    03:00 +9°C° 1.1 mm 12 mps 750 mmHg 96%
    04:00 +9°C° 1.1 mm 12 mps 750 mmHg 96%
    05:00 +9°C° 2.1 mm 13 mps 749 mmHg 96%
    06:00 +9°C° 2.1 mm 13 mps 749 mmHg 96%
    07:00 +9°C° 2.1 mm 13 mps 748 mmHg 96%
    08:00 +9°C° 0.6 mm 12 mps 748 mmHg 96%
    09:00 +10°C° 0.6 mm 12 mps 747 mmHg 96%
    10:00 +10°C° 0.6 mm 12 mps 747 mmHg 96%
    11:00 +10°C° 0.1 mm 12 mps 747 mmHg 96%
    12:00 +10°C° 0.1 mm 12 mps 746 mmHg 96%
    13:00 +11°C° 0.1 mm 11 mps 746 mmHg 96%
    14:00 +11°C° 0 mm 11 mps 746 mmHg 96%
    15:00 +11°C° 0 mm 10 mps 745 mmHg 97%
    16:00 +10°C° 0 mm 9 mps 745 mmHg 97%
    17:00 +10°C° 0 mm 9 mps 745 mmHg 97%
    18:00 +10°C° 0 mm 8 mps 745 mmHg 97%
    19:00 +10°C° 0 mm 8 mps 745 mmHg 97%
    20:00 +10°C° 0 mm 7 mps 745 mmHg 97%
    21:00 +10°C° 0 mm 6 mps 745 mmHg 97%
    22:00 +10°C° 0 mm 6 mps 745 mmHg 97%
    23:00 +10°C° 0.7 mm 5 mps 745 mmHg 97%

    20 September, Friday

    Time Temperature Precipitation Wind Pressure Humidity
    00:00 +10°C° 0.7 mm 5 mps 744 mmHg 97%
    01:00 +10°C° 0.7 mm 5 mps 744 mmHg 96%
    02:00 +10°C° 1.3 mm 5 mps 743 mmHg 96%
    03:00 +10°C° 1.3 mm 6 mps 743 mmHg 96%
    04:00 +10°C° 1.3 mm 6 mps 743 mmHg 96%
    05:00 +10°C° 1 mm 6 mps 742 mmHg 97%
    06:00 +10°C° 1 mm 5 mps 742 mmHg 97%
    07:00 +10°C° 1 mm 5 mps 742 mmHg 97%
    08:00 +11°C° 0.4 mm 4 mps 742 mmHg 97%
    09:00 +11°C° 0.4 mm 4 mps 743 mmHg 97%
    10:00 +11°C° 0.4 mm 3 mps 743 mmHg 96%
    11:00 +13°C° 0.1 mm 2 mps 743 mmHg 95%
    12:00 +13°C° 0.1 mm 2 mps 742 mmHg 94%
    13:00 +13°C° 0.1 mm 2 mps 742 mmHg 93%
    14:00 +13°C° 0.3 mm 2 mps 742 mmHg 94%
    15:00 +12°C° 0.3 mm 2 mps 742 mmHg 95%
    16:00 +12°C° 0.3 mm 2 mps 742 mmHg 96%
    17:00 +11°C° 0.6 mm 4 mps 742 mmHg 97%
    18:00 +10°C° 0.6 mm 5 mps 742 mmHg 97%
    19:00 +10°C° 0.6 mm 7 mps 742 mmHg 97%
    20:00 +10°C° 1.4 mm 8 mps 742 mmHg 97%
    21:00 +10°C° 1.4 mm 9 mps 741 mmHg 97%
    22:00 +9°C° 1.4 mm 10 mps 741 mmHg 97%
    23:00 +9°C° 1.4 mm 10 mps 741 mmHg 96%

    21 September, Saturday

    Time Temperature Precipitation Wind Pressure Humidity
    00:00 +9°C° 1.4 mm 10 mps 741 mmHg 96%
    01:00 +8°C° 1.4 mm 11 mps 740 mmHg 95%
    02:00 +9°C° 1.2 mm 10 mps 740 mmHg 95%
    03:00 +9°C° 1.2 mm 10 mps 740 mmHg 95%
    04:00 +10°C° 1.2 mm 9 mps 739 mmHg 95%
    05:00 +10°C° 1.9 mm 9 mps 739 mmHg 95%
    06:00 +10°C° 1.9 mm 9 mps 739 mmHg 94%
    07:00 +10°C° 1.9 mm 9 mps 739 mmHg 94%
    08:00 +10°C° 1.3 mm 9 mps 740 mmHg 94%
    09:00 +10°C° 1.3 mm 8 mps 740 mmHg 94%
    10:00 +10°C° 1.3 mm 8 mps 740 mmHg 94%
    11:00 +10°C° 1.1 mm 7 mps 740 mmHg 94%
    12:00 +10°C° 1.1 mm 7 mps 740 mmHg 94%
    13:00 +10°C° 1.1 mm 7 mps 740 mmHg 94%
    14:00 +11°C° 0.1 mm 6 mps 740 mmHg 92%
    15:00 +11°C° 0.1 mm 6 mps 740 mmHg 90%
    16:00 +11°C° 0.1 mm 6 mps 740 mmHg 88%
    17:00 +11°C° 0.5 mm 7 mps 740 mmHg 86%
    18:00 +11°C° 0.5 mm 9 mps 739 mmHg 83%
    19:00 +9°C° 0.5 mm 10 mps 739 mmHg 81%
    20:00 +9°C° 0.8 mm 10 mps 738 mmHg 82%
    21:00 +9°C° 0.8 mm 10 mps 738 mmHg 83%
    22:00 +8°C° 0.8 mm 10 mps 737 mmHg 84%
    23:00 +8°C° 0.3 mm 11 mps 737 mmHg 86%

    22 September, Sunday

    Time Temperature Precipitation Wind Pressure Humidity
    00:00 +8°C° 0.3 mm 12 mps 737 mmHg 88%
    01:00 +8°C° 0.3 mm 13 mps 737 mmHg 90%
    02:00 +8°C° 0.6 mm 13 mps 737 mmHg 90%
    03:00 +8°C° 0.6 mm 12 mps 738 mmHg 90%
    04:00 +8°C° 0.6 mm 12 mps 739 mmHg 90%
    05:00 +8°C° 0.1 mm 11 mps 740 mmHg 90%
    06:00 +8°C° 0.1 mm 10 mps 740 mmHg 91%
    07:00 +10°C° 0.1 mm 9 mps 741 mmHg 91%
    08:00 +10°C° 0.3 mm 9 mps 742 mmHg 90%
    09:00 +10°C° 0.3 mm 8 mps 742 mmHg 89%
    10:00 +10°C° 0.3 mm 8 mps 742 mmHg 88%
    11:00 +10°C° 1.9 mm 7 mps 742 mmHg 87%
    12:00 +10°C° 1.9 mm 7 mps 742 mmHg 86%
    13:00 +10°C° 1.9 mm 6 mps 742 mmHg 86%
    14:00 +10°C° 1.5 mm 7 mps 742 mmHg 88%
    15:00 +10°C° 1.5 mm 8 mps 742 mmHg 91%
    16:00 +10°C° 1.5 mm 9 mps 742 mmHg 93%
    17:00 +9°C° 0.5 mm 8 mps 742 mmHg 93%
    18:00 +9°C° 0.5 mm 8 mps 742 mmHg 93%
    19:00 +8°C° 0.5 mm 7 mps 743 mmHg 92%
    20:00 +8°C° 0 mm 6 mps 743 mmHg 91%
    21:00 +8°C° 0 mm 5 mps 743 mmHg 89%
    22:00 +8°C° 0 mm 4 mps 743 mmHg 87%
    23:00 +8°C° 0.2 mm 4 mps 743 mmHg 87%
    Show more